This demonstration page uses our WeatherBlox Daily Observations layout. Learn more.

Left ArrowRight Arrow

53.62937, 11.41316

Hourly Observations for January 4, 2018

Temp ( °F °C ) Dew Point ( °F °C ) Humidity (%) Winds ( mph kmh ) Pressure ( in mb ) Visibility ( mi km ) Precip ( " mm )
5:20 am 05:20 Cloudy 41 5 39 4 93 93 WSW 16 26 29.21 989 30 48 N/A
5:50 am 05:50 Cloudy 41 5 37 3 87 87 WSW 16 26 29.23 990 30 48 N/A
6:20 am 06:20 Cloudy 41 5 39 4 93 93 WSW 15 24 29.23 990 30 48 N/A
6:50 am 06:50 Cloudy 41 5 39 4 93 93 WSW 15 24 29.23 990 30 48 N/A
7:20 am 07:20 Cloudy 41 5 39 4 93 93 WSW 14 22 29.26 991 30 48 N/A
7:50 am 07:50 Cloudy 41 5 39 4 93 93 WSW 15 24 29.26 991 30 48 N/A
8:20 am 08:20 Cloudy 41 5 39 4 93 93 WSW 16 26 29.26 991 30 48 N/A
8:50 am 08:50 Cloudy 41 5 41 5 100 100 WSW 14 22 29.26 991 5 8 N/A
9:20 am 09:20 Cloudy with Drizzle 41 5 41 5 100 100 W 7 11 29.29 992 4 7 N/A
9:50 am 09:50 Cloudy 43 6 41 5 93 93 WSW 15 24 29.29 992 30 48 N/A
10:20 am 10:20 Cloudy with Light Rain 43 6 41 5 93 93 WSW 12 19 29.29 992 3 5 N/A
10:50 am 10:50 Cloudy with Light Rain 43 6 41 5 93 93 WSW 8 13 29.29 992 2 3 N/A
11:20 am 11:20 Cloudy 43 6 41 5 93 93 WSW 8 13 29.29 992 30 48 N/A
11:50 am 11:50 Cloudy with Light Rain 43 6 41 5 93 93 WSW 15 24 29.29 992 30 48 N/A
12:20 pm 12:20 Cloudy with Light Rain 43 6 41 5 93 93 WSW 14 22 29.29 992 6 9 N/A
12:50 pm 12:50 Mostly Cloudy with Light Rain 43 6 41 5 93 93 W 10 17 29.29 992 3 5 N/A
1:20 pm 13:20 Mostly Cloudy with Light Rain 43 6 43 6 100 100 WSW 12 19 29.29 992 3 5 N/A
1:50 pm 13:50 Mostly Cloudy with Drizzle 43 6 41 5 93 93 WSW 12 19 29.29 992 30 48 N/A
2:20 pm 14:20 Mostly Cloudy 45 7 41 5 87 87 SW 15 24 29.29 992 30 48 N/A
2:50 pm 14:50 Mostly Cloudy with Drizzle 45 7 41 5 87 87 SW 15 24 29.29 992 30 48 N/A
3:20 pm 15:20 Mostly Cloudy with Drizzle 45 7 41 5 87 87 SW 16 26 29.26 991 30 48 N/A
3:50 pm 15:50 Mostly Cloudy 43 6 41 5 93 93 SW 14 22 29.26 991 30 48 N/A
4:20 pm 16:20 Mostly Cloudy 43 6 41 5 93 93 SW 12 19 29.26 991 30 48 N/A
4:50 pm 16:50 Mostly Cloudy 43 6 39 4 87 87 SSW 12 19 29.26 991 30 48 N/A
5:20 pm 17:20 Mostly Cloudy 43 6 39 4 87 87 SSW 10 17 29.26 991 30 48 N/A
5:50 pm 17:50 Mostly Cloudy 43 6 39 4 87 87 S 9 15 29.26 991 30 48 N/A

Powered by AerisWeather